Location: Cadeilhan
(42.8161°N, 0.3161°E)
Time: 02:42:13
(UTC+00:00)

GEOS 3 Rocket - Pass Details

Date: 18 February 2020
Orbit: 777 x 842 km, 115.0° (Epoch: 05 April)

Event Time Altitude Azimuth Distance (km) Brightness Sun altitude
Rises 05:27:50 0° 31° (NNE) 3,364 7.2 -16.2°
Reaches altitude 10° 05:30:14 10° 24° (NNE) 2,437 6.4 -15.8°
Maximum altitude 05:35:10 40° 316° (NW) 1,205 4.2 -14.8°
Enters shadow 05:38:29 19° 257° (WSW) 1,874 4.9 -14.2°
